Mount Holly, NJ

8:04 PM EST on December 05, 2019 (GMT -0500)
South Jersey Regional

Weather History for KVAY - October, 2019

Change the Weather History Date:

Tuesday, October 22, 2019

  Actual Average (WUND) Record (WUND)
Temperature  
Mean Temperature 60 °F -  
Max Temperature 64 °F - - (-1)
Min Temperature 55 °F - - (-1)
Degree Days  
Heating Degree Days 6    
Growing Degree Days 10 (Base 50)    
Moisture  
Dew Point 59 °F    
Average Humidity 93    
Maximum Humidity 100    
Minimum Humidity 83    
Precipitation  
Precipitation 0.58 in - - ()
Sea Level Pressure  
Sea Level Pressure 29.92 in    
Wind  
Wind Speed 3 mph (ESE)    
Max Wind Speed 9 mph    
Max Gust Speed -    
Visibility 5 miles    
Events Rain    
Averages and records for this station are not official NWS values.
T = Trace of Precipitation, MM = Missing Value Source: NWS Daily Summary

Daily Weather History Graph

Daily Weather History Graph

Search for Another Location

Airport or City:

Astronomy

Oct. 22, 2019 Rise Set
Actual Time 7:16 AM EDT 6:10 PM EDT
Civil Twilight 6:49 AM EDT 6:37 PM EDT
Nautical Twilight 6:17 AM EDT 7:09 PM EDT
Astronomical Twilight 5:46 AM EDT 7:40 PM EDT
Moon 12:24 AM EDT (10/22) 3:17 PM EDT (10/22)
Length of Visible Light 11h 48m
Length of Day
10h 53m
Last Quarter, 37% of the Moon is Illuminated
Oct 22
Last Quarter
Oct 27
New
Nov 4
First Quarter
Nov 12
Full
Nov 19
Last Quarter

Hourly Weather History & Observations

Time (EDT) Temp. Dew Point Humidity Pressure Visibility Wind Dir Wind Speed Gust Speed Precip Events Conditions
12:54 AM 55.9 °F 53.1 °F 90% 30.11 in 10.0 mi Calm Calm - N/A   Overcast
1:45 AM 57.0 °F 53.1 °F 87% 30.09 in 10.0 mi Calm Calm - N/A   Overcast
1:54 AM 55.9 °F 53.1 °F 90% 30.09 in 10.0 mi Calm Calm - N/A   Overcast
2:54 AM 55.9 °F 53.1 °F 90% 30.08 in 10.0 mi Calm Calm - N/A   Overcast
3:54 AM 55.9 °F 53.1 °F 90% 30.06 in 10.0 mi Calm Calm - N/A   Overcast
4:54 AM 55.9 °F 53.1 °F 90% 30.06 in 10.0 mi Calm Calm - N/A   Overcast
5:54 AM 55.9 °F 53.1 °F 90% 30.05 in 10.0 mi Calm Calm - N/A   Overcast
6:54 AM 57.0 °F 52.0 °F 83% 30.05 in 10.0 mi NE 3.5 mph - N/A   Overcast
7:09 AM 57.0 °F 52.0 °F 83% 30.05 in 10.0 mi Calm Calm - N/A   Overcast
7:45 AM 55.9 °F 52.0 °F 87% 30.02 in 6.0 mi Variable 4.6 mph - N/A   Overcast
7:54 AM 55.9 °F 53.1 °F 90% 30.02 in 3.0 mi ESE 6.9 mph - N/A   Overcast
8:05 AM 55.9 °F 54.0 °F 93% 30.02 in 6.0 mi Variable 3.5 mph - N/A   Overcast
8:54 AM 57.9 °F 55.0 °F 90% 30.05 in 10.0 mi Calm Calm - N/A   Overcast
9:54 AM 59.0 °F 55.9 °F 90% 30.03 in 10.0 mi ESE 3.5 mph - N/A   Overcast
10:23 AM 60.1 °F 57.0 °F 90% 30.03 in 1.8 mi Variable 3.5 mph - N/A   Overcast
10:30 AM 60.1 °F 57.0 °F 90% 30.03 in 2.0 mi East 3.5 mph - N/A   Overcast
10:39 AM 60.1 °F 57.9 °F 93% 30.03 in 6.0 mi East 4.6 mph - N/A   Overcast
10:54 AM 60.1 °F 57.9 °F 93% 30.02 in 1.8 mi East 4.6 mph - N/A   Overcast
11:43 AM 61.0 °F 59.0 °F 93% 30.01 in 1.0 mi ESE 4.6 mph - N/A   Overcast
11:54 AM 61.0 °F 59.0 °F 93% 30.00 in 1.0 mi East 3.5 mph - N/A   Overcast
12:04 PM 62.1 °F 60.1 °F 93% 30.00 in 1.2 mi East 4.6 mph - N/A   Overcast
12:33 PM 62.1 °F 60.1 °F 93% 29.96 in 1.8 mi East 6.9 mph - N/A   Overcast
12:41 PM 62.1 °F 60.1 °F 93% 29.96 in 2.0 mi ESE 8.1 mph - N/A   Overcast
12:49 PM 62.6 °F 60.8 °F 94% 29.95 in 1.5 mi East 6.9 mph - N/A   Overcast
12:54 PM 62.1 °F 60.1 °F 93% 29.94 in 1.8 mi ESE 8.1 mph - N/A   Overcast
1:05 PM 63.0 °F 60.1 °F 90% 29.94 in 2.5 mi ESE 9.2 mph - N/A   Overcast
1:35 PM 63.0 °F 61.0 °F 93% 29.91 in 6.0 mi Variable 6.9 mph - N/A   Overcast
1:43 PM 63.0 °F 61.0 °F 93% 29.91 in 5.0 mi Variable 6.9 mph - N/A   Overcast
1:54 PM 63.0 °F 61.0 °F 93% 29.91 in 2.0 mi ESE 8.1 mph - N/A   Overcast
2:05 PM 63.0 °F 61.0 °F 93% 29.89 in 5.0 mi Variable 4.6 mph - N/A   Overcast
2:54 PM 64.0 °F 61.0 °F 90% 29.88 in 10.0 mi SE 5.8 mph - N/A   Overcast
3:54 PM 64.0 °F 61.0 °F 90% 29.86 in 10.0 mi SE 9.2 mph - 0.00 in   Overcast
4:54 PM 64.0 °F 61.0 °F 90% 29.85 in 7.0 mi SE 8.1 mph - N/A   Overcast
5:54 PM 63.0 °F 61.0 °F 93% 29.83 in 7.0 mi Variable 4.6 mph - N/A   Overcast
6:50 PM 62.6 °F 62.6 °F 100% 29.85 in 2.5 mi Variable 3.5 mph - 0.13 in Rain Heavy Rain
6:54 PM 63.0 °F 62.1 °F 97% 29.85 in 2.5 mi Calm Calm - 0.17 in Rain Heavy Rain
7:08 PM 63.0 °F 62.1 °F 97% 29.83 in 3.0 mi ESE 6.9 mph - 0.06 in Rain Rain
7:15 PM 63.0 °F 62.1 °F 97% 29.83 in 4.0 mi ESE 6.9 mph - 0.10 in Rain Rain
7:22 PM 63.0 °F 62.1 °F 97% 29.82 in 3.0 mi ESE 9.2 mph - 0.12 in Rain Rain
7:54 PM 64.0 °F 62.1 °F 93% 29.81 in 7.0 mi ESE 8.1 mph - 0.14 in Rain Light Rain
8:20 PM 64.0 °F 62.1 °F 93% 29.80 in 9.0 mi SE 8.1 mph - 0.03 in Rain Light Rain
8:54 PM 64.0 °F 63.0 °F 96% 29.80 in 4.0 mi SE 5.8 mph - 0.05 in Rain Light Rain
9:04 PM 64.0 °F 63.0 °F 96% 29.80 in 2.0 mi SE 4.6 mph - 0.02 in Rain Rain
9:16 PM 64.0 °F 63.0 °F 96% 29.80 in 3.0 mi Variable 6.9 mph - 0.04 in Rain Rain
9:23 PM 64.0 °F 63.0 °F 96% 29.79 in 2.5 mi SE 5.8 mph - 0.07 in Rain Rain
9:38 PM 64.0 °F 63.0 °F 96% 29.80 in 8.0 mi Variable 3.5 mph - 0.08 in Rain Light Rain
9:51 PM 64.4 °F 62.6 °F 94% 29.80 in 4.0 mi Calm Calm - 0.08 in Rain Light Rain
9:54 PM 64.0 °F 63.0 °F 96% 29.80 in 2.5 mi Variable 4.6 mph - 0.09 in Rain Light Rain
10:01 PM 64.0 °F 63.0 °F 96% 29.81 in 2.0 mi Calm Calm - 0.01 in Rain Light Rain
10:22 PM 64.9 °F 63.0 °F 93% 29.80 in 2.5 mi Variable 3.5 mph - 0.08 in Rain Rain
10:54 PM 64.9 °F 64.0 °F 97% 29.80 in 2.5 mi Calm Calm - 0.12 in Rain Light Rain
11:01 PM 64.9 °F 64.0 °F 97% 29.79 in 3.0 mi Variable 3.5 mph - 0.00 in Rain Light Rain
11:21 PM 64.9 °F 63.0 °F 93% 29.80 in 10.0 mi SW 3.5 mph - 0.00 in   Overcast
11:47 PM 64.9 °F 63.0 °F 93% 29.79 in 7.0 mi WSW 4.6 mph - 0.01 in   Overcast
11:54 PM 64.9 °F 63.0 °F 93% 29.79 in 3.0 mi West 6.9 mph - 0.01 in Rain Light Rain